[[{"header":{"parameterUnit":"m.s-1","parameterCategory":1,"la1":30.2991,"la2":30.254,"lo1":-89.0895,"lo2":-89.0444,"dy":0.0017,"dx":0.0017,"nx":28,"ny":28,"refTime":"2025-12-02T03:00:00:Z","depth":0,"parameterNumber":2,"parameterNumberName":"U-component_of_WINDS"},"data":[0,0,0,0,0,0,0,0,0,0,0,0,0,0,0,0,0,0,0,0,0,0,0,0,0,0,0,0,0,0,0,0,0,0,0,0,0,0,0,0,0,0,0,0,0,0,0,0,0,0,0,0,0,0,0,0,0,0,3.4727,3.4727,0,3.4711,3.4711,3.4711,3.4646,3.4645,3.4643,3.4642,3.4626,3.4627,3.4628,0,0,0,0,0,0,0,0,0,0,0,0,0,3.4705,3.4705,3.4727,3.4727,3.4727,3.4711,3.4711,3.4711,3.4646,3.4645,3.4643,3.4641,3.4626,3.4627,3.4628,0,0,0,0,0,0,0,0,0,0,0,0,0,3.4704,3.4706,3.4727,3.4693,3.469,3.4711,3.4711,3.4711,3.4647,3.4645,3.4642,3.464,3.4625,3.4627,3.4628,3.4682,0,0,3.4632,3.4633,0,0,0,0,0,0,0,0,3.4704,3.4705,3.4698,3.4695,3.4692,3.4678,3.4697,3.4701,3.4647,3.4663,3.4642,3.4639,3.4645,3.4645,3.4647,3.4681,3.468,3.4633,3.4633,3.4634,3.4634,0,0,0,0,0,0,0,3.4704,3.4705,3.4721,3.4698,3.4694,3.4679,3.4676,3.4697,3.4667,3.4662,3.4657,3.4656,3.4643,3.4646,3.4646,3.468,3.4633,3.4634,3.4635,3.4635,3.4759,3.4761,0,0,0,0,0,0,3.4709,3.4706,3.4721,3.472,3.4693,3.4681,3.4678,3.4685,3.4666,3.4662,3.4658,3.4653,3.4644,3.4644,3.4645,3.4707,3.4634,3.4635,3.4636,3.4756,3.4759,3.4762,0,0,0,0,0,0,3.4709,3.4711,3.4722,3.4712,3.4712,3.4684,3.4692,3.4686,3.4688,3.4664,3.4658,3.4666,3.4642,3.4643,3.4673,3.4706,3.4636,3.4637,3.4753,3.4757,3.476,3.4831,0,0,0,0,0,0,3.4708,3.4711,3.4731,3.4713,3.4713,3.475,3.4694,3.4687,3.4691,3.4684,3.467,3.4665,3.4641,3.4671,3.4675,3.4706,3.4639,3.475,3.4755,3.4759,3.4826,3.4837,3.4846,0,0,0,0,0,3.4708,3.4751,3.4732,3.4734,3.4737,3.4752,3.4752,3.4723,3.4694,3.4713,3.4698,3.4665,3.4702,3.4675,3.4678,3.4711,3.4748,3.4754,3.4759,3.4821,3.4835,3.4846,0,0,0,0,0,0,3.4773,3.4748,3.4727,3.4765,3.4762,3.4741,3.4765,3.4738,3.4742,3.4736,3.47,3.4697,3.4733,3.4725,3.4696,3.4762,3.472,3.4726,3.4766,3.4779,3.4789,3.4789,3.464,0,0,0,0,0,3.4793,3.4807,3.4784,3.4821,3.482,3.4793,3.4799,3.4777,3.4771,3.4769,3.4756,3.4752,3.4763,3.477,3.4779,3.4825,3.4821,3.4849,3.4859,3.4868,3.4873,3.4898,3.491,3.478,3.478,3.4779,0,0,3.4832,3.482,3.4831,3.4834,3.4828,3.4844,3.4792,3.4811,3.4823,3.4772,3.48,3.479,3.4784,3.4823,3.4839,3.4817,3.4909,3.4875,3.4882,3.4882,3.4905,3.4917,3.4928,3.4783,3.4783,3.4782,0,0,3.4912,3.4904,3.4934,3.493,3.4922,3.4904,3.4912,3.4896,3.4888,3.4915,3.4878,3.4892,3.491,3.4908,3.4909,3.499,3.4961,3.4994,3.5047,3.5071,3.5082,3.5091,3.512,3.5131,3.5,3.5,3.5,0,3.4961,3.4984,3.4953,3.4975,3.4977,3.4933,3.4963,3.4961,3.4957,3.496,3.4935,3.4959,3.4951,3.4989,3.5009,3.5012,3.5019,3.4995,3.5083,3.5091,3.5099,3.5127,3.5138,3.5004,3.5004,3.5003,3.5003,0,3.5046,3.5062,3.5088,3.5085,3.509,3.5117,3.509,3.51,3.5078,3.5063,3.5093,3.5082,3.5088,3.5096,3.5075,3.5131,3.5118,3.5089,3.5045,3.5116,3.5141,3.5152,3.501,3.5008,3.5007,3.5006,0,0,3.5165,3.5146,3.5155,3.5154,3.5143,3.5156,3.5181,3.5187,3.5196,3.5195,3.5215,3.5233,3.5207,3.5208,3.5187,3.5208,3.5274,3.5176,3.5176,3.5195,3.5337,3.5358,3.5371,3.5255,3.5257,3.5259,3.5337,0,3.5241,3.5281,3.5255,3.53,3.5316,3.5275,3.5297,3.5293,3.5281,3.5292,3.5278,3.5292,3.5255,3.5256,3.5276,3.5262,3.5302,3.5256,3.5274,3.5275,3.5276,3.5384,3.5407,3.5481,3.5347,3.5348,3.535,0,3.5334,3.5338,3.5385,3.5373,3.5378,3.5398,3.5402,3.5414,3.5409,3.5399,3.5401,3.5375,3.5399,3.5357,3.5391,3.536,3.5366,3.5361,3.5363,3.5363,3.5316,3.5387,3.5504,3.5515,3.5365,3.5364,3.5362,0,3.5416,3.5433,3.5464,3.5464,3.545,3.5465,3.5461,3.5454,3.546,3.5464,3.5467,3.5474,3.5478,3.5484,3.5461,3.5432,3.5498,3.5453,3.549,3.549,3.5504,3.5504,3.5624,3.551,3.5509,3.5509,3.5509,0,3.5504,3.5534,3.5501,3.5519,3.5553,3.5523,3.5557,3.5548,3.5543,3.5559,3.5525,3.5541,3.5509,3.5523,3.5505,3.5536,3.5538,3.553,3.5525,3.5533,3.5534,3.5536,3.553,3.5512,3.5511,3.5511,3.551,0,3.56,3.5579,3.561,3.5595,3.5592,3.5617,3.5605,3.5622,3.5608,3.5629,3.5633,3.5611,3.5625,3.5603,3.5614,3.5602,3.5645,3.5632,3.5646,3.5642,3.568,3.5677,3.5806,3.5821,3.5697,3.5698,3.5699,0,3.5657,3.5679,3.5667,3.5676,3.5673,3.5688,3.5694,3.5666,3.5674,3.5672,3.569,3.5701,3.5709,3.5734,3.5719,3.5729,3.5715,3.576,3.5716,3.5724,3.5716,3.5715,3.5717,3.5768,3.577,3.5771,3.5772,0,3.576,3.5749,3.5759,3.5766,3.5774,3.5778,3.578,3.5789,3.576,3.5771,3.5785,3.5791,3.5804,3.5816,3.5822,3.5817,3.579,3.5786,3.5795,3.5803,3.5811,3.5807,3.567,3.5783,3.5782,3.5781,3.5781,3.578,3.5838,3.5857,3.5852,3.5864,3.5863,3.5865,3.5881,3.587,3.5881,3.5889,3.5872,3.5891,3.5888,3.5893,3.5891,3.5906,3.5886,3.5899,3.5903,3.5906,3.5912,3.5809,3.5907,3.5907,3.5906,3.5906,3.5906,0,3.5939,3.5934,3.5947,3.595,3.5961,3.5935,3.5936,3.5946,3.5963,3.5962,3.5971,3.5988,3.6,3.5987,3.5997,3.6012,3.6,3.6015,3.6013,3.6013,3.5929,3.592,3.6025,3.6025,3.6025,3.6025,3.6025,3.6025,3.5993,3.6023,3.6012,3.6042,3.6037,3.6055,3.6058,3.606,3.606,3.6081,3.6091,3.6082,3.6077,3.6086,3.6096,3.6092,3.6097,3.6117,3.6109,3.603,3.6019,3.6008,3.5999,3.6119,3.6119,3.6192,3.6192,3.6193]},{"header":{"parameterUnit":"m.s-1","parameterCategory":1,"la1":30.2991,"la2":30.254,"lo1":-89.0895,"lo2":-89.0444,"dy":0.0017,"dx":0.0017,"nx":28,"ny":28,"refTime":"2025-12-02T03:00:00:Z","depth":0,"parameterNumber":3,"parameterNumberName":"V-component_of_WINDS"},"data":[0,0,0,0,0,0,0,0,0,0,0,0,0,0,0,0,0,0,0,0,0,0,0,0,0,0,0,0,0,0,0,0,0,0,0,0,0,0,0,0,0,0,0,0,0,0,0,0,0,0,0,0,0,0,0,0,0,0,-6.4492,-6.4494,0,-6.4637,-6.4639,-6.4641,-6.4611,-6.4608,-6.4605,-6.4603,-6.4746,-6.4752,-6.4758,0,0,0,0,0,0,0,0,0,0,0,0,0,-6.4183,-6.4189,-6.4492,-6.4494,-6.4496,-6.4637,-6.4639,-6.4641,-6.4611,-6.4608,-6.4605,-6.4602,-6.4744,-6.4751,-6.4759,0,0,0,0,0,0,0,0,0,0,0,0,0,-6.4322,-6.4191,-6.4492,-6.4498,-6.45,-6.4637,-6.4639,-6.4642,-6.4612,-6.4608,-6.4604,-6.46,-6.4741,-6.475,-6.476,-6.4898,0,0,-6.4788,-6.4792,0,0,0,0,0,0,0,0,-6.4314,-6.4333,-6.4495,-6.4498,-6.45,-6.4602,-6.4583,-6.4727,-6.4613,-6.4569,-6.4603,-6.4598,-6.4701,-6.4713,-6.4749,-6.4904,-6.491,-6.4789,-6.4795,-6.4799,-6.4802,0,0,0,0,0,0,0,-6.4304,-6.4327,-6.4549,-6.4497,-6.4501,-6.4492,-6.4507,-6.461,-6.4655,-6.4573,-6.4571,-6.4589,-6.4701,-6.474,-6.4752,-6.4913,-6.4789,-6.4797,-6.4803,-6.4807,-6.5189,-6.5194,0,0,0,0,0,0,-6.4293,-6.4319,-6.4545,-6.4554,-6.4396,-6.4501,-6.4518,-6.4573,-6.4654,-6.4663,-6.4592,-6.4587,-6.4726,-6.4741,-6.4757,-6.4925,-6.4799,-6.4808,-6.4813,-6.5185,-6.519,-6.5195,0,0,0,0,0,0,-6.4287,-6.4314,-6.4539,-6.4436,-6.4464,-6.451,-6.4573,-6.4578,-6.4617,-6.4669,-6.4676,-6.4624,-6.4723,-6.4744,-6.4864,-6.4929,-6.4812,-6.4821,-6.518,-6.5187,-6.5193,-6.5261,0,0,0,0,0,0,-6.4278,-6.4312,-6.4366,-6.4438,-6.447,-6.4645,-6.4577,-6.4584,-6.4634,-6.4629,-6.4701,-6.4709,-6.4722,-6.485,-6.4873,-6.494,-6.4828,-6.5174,-6.5183,-6.5191,-6.5253,-6.5269,-6.5283,0,0,0,0,0,-6.4267,-6.4377,-6.4368,-6.4396,-6.4538,-6.4648,-6.4667,-6.4681,-6.4639,-6.4693,-6.4727,-6.4706,-6.4919,-6.4862,-6.4888,-6.4959,-6.517,-6.518,-6.519,-6.5246,-6.5266,-6.5283,0,0,0,0,0,0,-6.4309,-6.4387,-6.4378,-6.4515,-6.4576,-6.4643,-6.4712,-6.4702,-6.4774,-6.4765,-6.4779,-6.4795,-6.4918,-6.495,-6.4886,-6.5098,-6.5038,-6.5054,-6.5072,-6.5091,-6.5106,-6.5095,-6.4836,0,0,0,0,0,-6.4335,-6.442,-6.4482,-6.4597,-6.4628,-6.4665,-6.4713,-6.472,-6.4782,-6.4807,-6.4849,-6.4909,-6.499,-6.5042,-6.5119,-6.5258,-6.5273,-6.5319,-6.5334,-6.5347,-6.536,-6.5437,-6.5458,-6.5229,-6.5229,-6.5228,0,0,-6.4388,-6.4441,-6.4493,-6.4607,-6.4654,-6.4741,-6.4686,-6.4779,-6.4843,-6.4821,-6.4937,-6.4971,-6.5038,-6.5169,-6.5228,-6.52,-6.5427,-6.536,-6.5369,-6.5376,-6.5449,-6.5471,-6.549,-6.5236,-6.5234,-6.5233,0,0,-6.4528,-6.4577,-6.4679,-6.4729,-6.4803,-6.4827,-6.4852,-6.4922,-6.4944,-6.5061,-6.5047,-6.5122,-6.526,-6.5309,-6.5352,-6.5514,-6.5498,-6.5538,-6.5616,-6.5691,-6.5709,-6.5725,-6.5783,-6.5804,-6.5552,-6.5552,-6.5552,0,-6.4584,-6.4715,-6.4732,-6.4827,-6.4878,-6.4864,-6.4967,-6.5013,-6.5108,-6.5143,-6.511,-6.5284,-6.5329,-6.5471,-6.5511,-6.5546,-6.5574,-6.553,-6.5706,-6.5722,-6.5737,-6.5793,-6.5814,-6.5556,-6.5556,-6.5555,-6.5555,0,-6.4781,-6.4872,-6.4945,-6.504,-6.5098,-6.5196,-6.5227,-6.5284,-6.5286,-6.5313,-6.5433,-6.5487,-6.5574,-6.5609,-6.561,-6.5752,-6.5732,-6.5702,-6.5643,-6.5763,-6.5816,-6.5837,-6.5563,-6.5561,-6.556,-6.5559,0,0,-6.495,-6.5055,-6.5081,-6.5125,-6.5207,-6.5277,-6.5374,-6.5463,-6.5512,-6.5577,-6.5659,-6.5778,-6.5752,-6.5801,-6.5808,-6.5873,-6.5999,-6.5836,-6.5838,-6.5864,-6.6158,-6.618,-6.6204,-6.5989,-6.5993,-6.5996,-6.6153,0,-6.5099,-6.5274,-6.5292,-6.5448,-6.5532,-6.5521,-6.5606,-6.5665,-6.5694,-6.5768,-6.5798,-6.5883,-6.5842,-6.5872,-6.5936,-6.597,-6.6058,-6.5959,-6.6064,-6.6067,-6.6047,-6.6232,-6.6255,-6.64,-6.6173,-6.6177,-6.6179,0,-6.5295,-6.537,-6.5535,-6.5607,-6.5642,-6.5719,-6.5802,-6.5874,-6.594,-6.5956,-6.6013,-6.6012,-6.6111,-6.6049,-6.6186,-6.6118,-6.6162,-6.6186,-6.6191,-6.6201,-6.613,-6.6247,-6.6446,-6.6468,-6.6212,-6.6209,-6.6207,0,-6.5403,-6.5544,-6.5662,-6.5699,-6.5786,-6.584,-6.5878,-6.5941,-6.5993,-6.6065,-6.6099,-6.6181,-6.6226,-6.6289,-6.6309,-6.6262,-6.6446,-6.6385,-6.6461,-6.6461,-6.65,-6.6497,-6.671,-6.6529,-6.6528,-6.6528,-6.6528,0,-6.5566,-6.5668,-6.5712,-6.5784,-6.5897,-6.5917,-6.6028,-6.6063,-6.6119,-6.6197,-6.6192,-6.6264,-6.6288,-6.6364,-6.6381,-6.6492,-6.6512,-6.6527,-6.653,-6.6528,-6.6526,-6.6556,-6.6547,-6.6534,-6.6533,-6.6531,-6.653,0,-6.5705,-6.5739,-6.5867,-6.5939,-6.596,-6.604,-6.6101,-6.617,-6.6198,-6.6297,-6.6321,-6.6365,-6.6455,-6.6482,-6.6589,-6.6601,-6.6731,-6.6725,-6.671,-6.671,-6.6785,-6.6778,-6.7024,-6.7058,-6.6855,-6.6857,-6.6858,0,-6.5808,-6.5886,-6.5968,-6.6021,-6.6062,-6.6147,-6.6202,-6.6224,-6.6281,-6.6364,-6.6423,-6.6512,-6.6585,-6.6729,-6.6769,-6.6852,-6.6847,-6.6928,-6.686,-6.6855,-6.6849,-6.6844,-6.6852,-6.6941,-6.6943,-6.6945,-6.6946,0,-6.5986,-6.5999,-6.6079,-6.6166,-6.6231,-6.63,-6.6366,-6.6409,-6.6441,-6.6504,-6.6598,-6.6655,-6.6766,-6.6855,-6.6939,-6.6976,-6.6967,-6.6968,-6.699,-6.6988,-6.6976,-6.6984,-6.6745,-6.6962,-6.696,-6.6959,-6.6958,-6.6958,-6.611,-6.6179,-6.6249,-6.6338,-6.6391,-6.6453,-6.6522,-6.656,-6.6639,-6.6733,-6.6741,-6.6842,-6.6907,-6.702,-6.7062,-6.714,-6.7116,-6.7148,-6.7156,-6.7164,-6.717,-6.6964,-6.7155,-6.7155,-6.7154,-6.7154,-6.7154,0,-6.6288,-6.6333,-6.6415,-6.6509,-6.6579,-6.6567,-6.6639,-6.6698,-6.6788,-6.6851,-6.6924,-6.7031,-6.7118,-6.7166,-6.7252,-6.7305,-6.7303,-6.7327,-6.7323,-6.7332,-6.7186,-6.7159,-6.7328,-6.7328,-6.7328,-6.7328,-6.7328,-6.7328,-6.6389,-6.6506,-6.6528,-6.6672,-6.6715,-6.6816,-6.6859,-6.6916,-6.6966,-6.7087,-6.7161,-6.7192,-6.7249,-6.7339,-6.7418,-6.743,-6.7462,-6.7489,-6.7497,-6.736,-6.7342,-6.7325,-6.7299,-6.7495,-6.7496,-6.7637,-6.7638,-6.7639]}]]